TimeEST,TemperatureF,Dew PointF,Humidity,Sea Level PressureIn,VisibilityMPH,Wind Direction,Wind SpeedMPH,Gust SpeedMPH,PrecipitationIn,Events,Conditions,WindDirDegrees,DateUTC
12:15 AM,35.6,28.4,75,29.48,10.0,WNW,6.9,-,N/A,,Overcast,300,2013-03-04 05:15:00
12:35 AM,35.6,26.6,70,29.48,10.0,WNW,10.4,-,N/A,,Overcast,290,2013-03-04 05:35:00
12:55 AM,35.6,26.6,70,29.47,10.0,WNW,10.4,-,N/A,,Overcast,290,2013-03-04 05:55:00
1:15 AM,35.6,28.4,75,29.47,10.0,West,10.4,-,N/A,,Overcast,280,2013-03-04 06:15:00
1:35 AM,35.6,28.4,75,29.47,10.0,West,12.7,-,N/A,,Mostly Cloudy,280,2013-03-04 06:35:00
1:55 AM,33.8,26.6,75,29.47,10.0,West,13.8,17.3,N/A,,Mostly Cloudy,280,2013-03-04 06:55:00
2:15 AM,33.8,26.6,75,29.47,10.0,West,10.4,-,N/A,,Overcast,280,2013-03-04 07:15:00
2:35 AM,33.8,26.6,75,29.47,10.0,WNW,9.2,-,N/A,,Overcast,290,2013-03-04 07:35:00
2:55 AM,33.8,26.6,75,29.46,10.0,West,11.5,16.1,N/A,,Overcast,280,2013-03-04 07:55:00
3:15 AM,33.8,26.6,75,29.47,10.0,WNW,11.5,-,N/A,,Overcast,290,2013-03-04 08:15:00
3:35 AM,33.8,26.6,75,29.46,10.0,West,11.5,-,N/A,,Mostly Cloudy,280,2013-03-04 08:35:00
3:55 AM,33.8,26.6,75,29.46,10.0,West,12.7,17.3,N/A,,Mostly Cloudy,280,2013-03-04 08:55:00
4:15 AM,33.8,26.6,75,29.46,10.0,WNW,15.0,21.9,N/A,,Scattered Clouds,290,2013-03-04 09:15:00
4:35 AM,33.8,24.8,70,29.46,10.0,West,12.7,19.6,N/A,,Mostly Cloudy,280,2013-03-04 09:35:00
4:55 AM,33.8,24.8,70,29.46,10.0,WNW,10.4,18.4,N/A,,Mostly Cloudy,290,2013-03-04 09:55:00
5:15 AM,33.8,24.8,70,29.47,10.0,WNW,8.1,-,N/A,,Scattered Clouds,290,2013-03-04 10:15:00
5:35 AM,33.8,24.8,70,29.47,10.0,NW,5.8,-,N/A,,Mostly Cloudy,310,2013-03-04 10:35:00
5:55 AM,33.8,24.8,70,29.46,10.0,WNW,9.2,-,N/A,,Mostly Cloudy,290,2013-03-04 10:55:00
6:15 AM,33.8,26.6,75,29.47,10.0,WNW,10.4,-,N/A,,Mostly Cloudy,300,2013-03-04 11:15:00
6:35 AM,32.0,26.6,80,29.47,10.0,West,12.7,-,N/A,,Partly Cloudy,280,2013-03-04 11:35:00
6:55 AM,32.0,26.6,80,29.47,10.0,NW,9.2,-,N/A,,Clear,310,2013-03-04 11:55:00
7:15 AM,33.8,26.6,75,29.48,10.0,WNW,9.2,-,N/A,,Clear,300,2013-03-04 12:15:00
7:35 AM,33.8,26.6,75,29.48,10.0,WNW,10.4,16.1,N/A,,Clear,300,2013-03-04 12:35:00
7:55 AM,33.8,26.6,75,29.48,10.0,NW,12.7,16.1,N/A,,Clear,310,2013-03-04 12:55:00
8:15 AM,33.8,26.6,75,29.48,10.0,WNW,11.5,16.1,N/A,,Clear,290,2013-03-04 13:15:00
8:35 AM,33.8,26.6,75,29.47,10.0,WNW,11.5,17.3,N/A,,Scattered Clouds,290,2013-03-04 13:35:00
8:55 AM,33.8,26.6,75,29.47,10.0,WNW,10.4,17.3,N/A,,Scattered Clouds,290,2013-03-04 13:55:00
9:15 AM,32.0,26.6,80,29.47,10.0,WNW,11.5,17.3,N/A,,Partly Cloudy,290,2013-03-04 14:15:00
9:35 AM,32.0,26.6,80,29.47,5.0,WNW,13.8,20.7,N/A,,Scattered Clouds,300,2013-03-04 14:35:00
9:55 AM,32.0,26.6,80,29.47,5.0,WNW,11.5,18.4,N/A,,Scattered Clouds,290,2013-03-04 14:55:00
10:15 AM,32.0,28.4,87,29.46,4.0,WNW,11.5,17.3,N/A,,Mostly Cloudy,290,2013-03-04 15:15:00
10:35 AM,32.0,28.4,87,29.46,6.0,WNW,13.8,18.4,N/A,,Mostly Cloudy,290,2013-03-04 15:35:00
10:55 AM,32.0,28.4,87,29.45,3.0,WNW,13.8,19.6,N/A,,Overcast,290,2013-03-04 15:55:00
11:15 AM,30.2,28.4,93,29.45,5.0,WNW,12.7,24.2,N/A,,Scattered Clouds,290,2013-03-04 16:15:00
11:35 AM,32.0,28.4,87,29.45,3.0,West,17.3,20.7,N/A,,Mostly Cloudy,280,2013-03-04 16:35:00
11:55 AM,32.0,28.4,87,29.45,2.5,WNW,12.7,23.0,N/A,,Mostly Cloudy,290,2013-03-04 16:55:00
12:15 PM,32.0,28.4,87,29.44,3.0,WNW,13.8,20.7,N/A,,Overcast,300,2013-03-04 17:15:00
12:35 PM,32.0,28.4,87,29.44,3.0,WNW,12.7,-,N/A,,Overcast,290,2013-03-04 17:35:00
12:55 PM,33.8,28.4,81,29.44,4.0,WNW,12.7,20.7,N/A,,Mostly Cloudy,290,2013-03-04 17:55:00
1:15 PM,33.8,28.4,81,29.44,8.0,WNW,11.5,19.6,N/A,,Scattered Clouds,300,2013-03-04 18:15:00
1:55 PM,33.8,30.2,87,29.45,1.2,WNW,12.7,18.4,N/A,,Overcast,290,2013-03-04 18:55:00
2:15 PM,33.8,30.2,87,29.45,1.2,WNW,11.5,-,N/A,,Overcast,290,2013-03-04 19:15:00
2:35 PM,33.8,32.0,93,29.45,2.0,WNW,11.5,18.4,N/A,,Mostly Cloudy,290,2013-03-04 19:35:00
2:55 PM,33.8,30.2,87,29.45,10.0,WNW,13.8,-,N/A,,Mostly Cloudy,290,2013-03-04 19:55:00
3:15 PM,33.8,30.2,87,29.46,10.0,WNW,11.5,17.3,N/A,,Overcast,290,2013-03-04 20:15:00
3:55 PM,33.8,30.2,87,29.46,10.0,WNW,11.5,19.6,N/A,,Overcast,300,2013-03-04 20:55:00
4:15 PM,33.8,30.2,87,29.47,10.0,WNW,9.2,17.3,N/A,,Mostly Cloudy,300,2013-03-04 21:15:00
4:35 PM,33.8,30.2,87,29.47,10.0,WNW,11.5,17.3,N/A,,Scattered Clouds,300,2013-03-04 21:35:00
4:55 PM,33.8,28.4,81,29.48,9.0,WNW,12.7,17.3,N/A,,Mostly Cloudy,300,2013-03-04 21:55:00
5:15 PM,33.8,30.2,87,29.49,10.0,WNW,10.4,18.4,N/A,,Scattered Clouds,290,2013-03-04 22:15:00
5:35 PM,33.8,30.2,87,29.49,10.0,WNW,8.1,16.1,N/A,,Mostly Cloudy,290,2013-03-04 22:35:00
5:55 PM,33.8,30.2,87,29.50,3.0,WNW,8.1,-,N/A,,Overcast,300,2013-03-04 22:55:00
6:15 PM,33.8,30.2,87,29.51,4.0,WNW,9.2,-,N/A,,Overcast,300,2013-03-04 23:15:00
6:35 PM,33.8,32.0,93,29.52,2.5,NW,4.6,-,N/A,,Overcast,310,2013-03-04 23:35:00
6:55 PM,33.8,32.0,93,29.52,4.0,NW,4.6,-,N/A,,Overcast,310,2013-03-04 23:55:00
7:15 PM,33.8,32.0,93,29.53,5.0,NW,4.6,-,N/A,,Overcast,320,2013-03-05 00:15:00
7:35 PM,33.8,32.0,93,29.53,3.0,NW,4.6,-,N/A,,Overcast,320,2013-03-05 00:35:00
7:55 PM,33.8,32.0,93,29.54,10.0,NW,4.6,-,N/A,,Overcast,320,2013-03-05 00:55:00
8:15 PM,35.6,33.8,93,29.55,10.0,North,8.1,-,N/A,,Overcast,360,2013-03-05 01:15:00
8:35 PM,35.6,33.8,93,29.55,10.0,North,8.1,-,N/A,,Overcast,360,2013-03-05 01:35:00
8:55 PM,35.6,33.8,93,29.56,10.0,North,8.1,-,N/A,,Overcast,360,2013-03-05 01:55:00
9:35 PM,35.6,33.8,93,29.57,10.0,North,9.2,-,N/A,,Overcast,360,2013-03-05 02:35:00
9:55 PM,35.6,33.8,93,29.58,10.0,North,5.8,-,N/A,,Overcast,10,2013-03-05 02:55:00
10:15 PM,35.6,33.8,93,29.59,10.0,North,10.4,17.3,N/A,,Overcast,10,2013-03-05 03:15:00
10:35 PM,35.6,33.8,93,29.59,10.0,North,10.4,18.4,N/A,,Overcast,10,2013-03-05 03:35:00
10:55 PM,35.6,33.8,93,29.60,10.0,North,6.9,-,N/A,,Overcast,360,2013-03-05 03:55:00
11:15 PM,33.8,32.0,93,29.61,7.0,North,8.1,16.1,N/A,,Overcast,10,2013-03-05 04:15:00
11:35 PM,33.8,33.8,100,29.61,9.0,North,9.2,19.6,N/A,,Overcast,10,2013-03-05 04:35:00
11:55 PM,35.6,32.0,87,29.63,10.0,North,11.5,16.1,N/A,,Overcast,360,2013-03-05 04:55:00